Regional Weather Roundup
Issued by NWS

Home | Current Version | Previous Version | Text Only | Print | Product List | Glossary Off
Versions: 1 2 3 4 5 6 7 8 9 10 11 12 13 14 15 16 17 18 19 20 21 22 23 24 25 26 27 28 29 30 31 32 33 34 35 36 37 38 39 40 41 42 43 44 45 46 47 48 49 50

000
ASUS43 KMPX 270501
RWRMN
WEATHER ROUNDUP FOR MINNESOTA
NATIONAL WEATHER SERVICE TWIN CITIES/CHANHASSEN MN
1200 AM CDT MON APR 27 2015


NOTE: "FAIR" INDICATES FEW OR NO CLOUDS BELOW 12,000 FEET WITH NO
SIGNIFICANT WEATHER AND/OR OBSTRUCTIONS TO VISIBILITY. N/A MEANS
CURRENT SKY AND/OR WEATHER CONDITIONS ARE NOT AVAILABLE.

MNZ060>063-068>070-270600-
   Twin Cities Metro

CITY           SKY/WX    TMP DP  RH WIND       PRES   REMARKS
TWIN CITIES    CLEAR     51  24  34 E10       30.16R
ST PAUL        CLEAR     50  25  37 E6        30.17R
CRYSTAL        CLEAR     45  24  43 CALM      30.15R
BLAINE         CLEAR     46  27  46 E3        30.16R
LAKEVILLE      CLEAR     46  27  46 CALM      30.15S
EDEN PRAIRIE   CLEAR     50  27  40 E5        30.14R
SOUTH ST PAUL  CLEAR     51  24  34 NE5       30.16R
LAKE ELMO      FAIR      45  27  49 CALM      30.16S
$$
MNZ001>005-007-008-013>017-022>024-027-028-270600-
   Northwest Minnesota

CITY           SKY/WX    TMP DP  RH WIND       PRES   REMARKS
BEMIDJI        PTCLDY    40  23  50 E5        30.17R
HALLOCK        MOCLDY    46  25  42 CALM      30.15S
ROSEAU         MOCLDY    41  28  60 CALM      30.18R
WARROAD        PTCLDY    39  28  65 E3        30.18S
THIEF RVR FALL PTCLDY    50  21  32 SE5       30.17R
CROOKSTON      PTCLDY    48  23  37 SE7       30.16S
FOSSTON        PTCLDY    43  27  52 CALM      30.17S
DETROIT LAKES  CLEAR     46  36  66 CALM      30.18R
MOORHEAD       PTCLDY    46  25  42 SE3       30.16S
PARK RAPIDS    CLEAR     41  24  51 NW3       30.16R
MAHNOMEN       FAIR      47  23  39 E5        30.16R
$$
MNZ006-009>011-018-025>026-270600-
   North Central Minnesota

CITY           SKY/WX    TMP DP  RH WIND       PRES   REMARKS
BAUDETTE       CLEAR     39  29  67 CALM      30.18R
FLAG ISLAND    PTCLDY    45  34  65 CALM      30.18R
INTL FALLS     CLEAR     32  20  61 CALM      30.18R
WASKISH        CLEAR     34  27  75 CALM      30.18S
BIG FORK       CLEAR     34  19  55 CALM      30.18S
LONGVILLE      CLEAR     34  28  80 CALM      30.17R
GRAND RAPIDS   CLEAR     36  18  48 S5        30.17S
CRANE LAKE     CLEAR     28  25  86 CALM      30.21R
ORR            CLEAR     34  23  64 CALM      30.16S
COOK           CLEAR     30  23  74 CALM      30.18S
WALKER         FAIR      38  17  42 CALM      30.17R
$$
MNZ012-019>021-037-270600-
   Northeast Minnesota

CITY           SKY/WX    TMP DP  RH WIND       PRES   REMARKS
DULUTH         CLEAR     36  24  62 E5        30.17S
ELY            CLEAR     34  27  75 CALM      30.17S
HIBBING        CLEAR     30  19  63 NW5       30.18R WCI  25
EVELETH        CLEAR     32  23  69 CALM      30.18S
DULUTH HARBOR  CLEAR     37  32  81 CALM      30.20S
TWO HARBORS    CLEAR     32  27  80 CALM      30.17R
SILVER BAY     CLEAR     28  23  80 CALM      30.17S
GRAND MARAIS     N/A     34  25  69 NW5       30.18S WCI  30
G MARAIS ARPRT CLEAR     30  21  69 CALM      30.18R
$$
MNZ029>031-032-039>041-046>048-054>057-064-270600-
   West Central Minnesota

CITY           SKY/WX    TMP DP  RH WIND       PRES   REMARKS
FERGUS FALLS   CLEAR     48  19  32 E5        30.17S
WHEATON        CLEAR     39  25  56 SE3       30.18R
MORRIS         CLEAR     48  21  34 E5        30.15S
ALEXANDRIA     CLEAR     43  32  65 CALM      30.17R
ELBOW LAKE     FAIR      47  32  54 SE5       30.16S
WADENA         CLEAR     39  25  56 CALM      30.16S
GLENWOOD       CLEAR     46  21  36 E5        30.17R
APPLETON       CLEAR     41  28  60 CALM      30.15S
BENSON         CLEAR     45  19  36 SE3       30.16S
ORTONVILLE     CLEAR     48  21  34 E5        30.16R
MADISON        FAIR      45  21  39 E5        30.15S
WILLMAR        FAIR      45  27  49 E6        30.17S
$$
MNZ033>034-036-042>043-049>051-058-059-270600-
   Central Minnesota

CITY           SKY/WX    TMP DP  RH WIND       PRES   REMARKS
ST CLOUD       CLEAR     38  24  57 CALM      30.16R
SAUK CENTRE    FAIR      39  25  58 CALM      30.17R
PAYNESVILLE    CLEAR     36  26  66 CALM      30.17S
AITKIN         CLEAR     32  23  69 CALM      30.16R
PINE RIVER     CLEAR     36  28  75 CALM      30.20R
BRAINERD       CLEAR     38  22  52 CALM      30.17R
STAPLES        CLEAR     37  27  65 CALM      30.16F
LONG PRAIRIE   FAIR      37  28  70 CALM      30.17S
LITTLE FALLS   CLEAR     36  28  75 CALM      30.17S
LITCHFIELD     CLEAR     46  27  46 CALM      30.16S
BUFFALO        CLEAR     41  25  53 CALM      30.17R
MAPLE LAKE     CLEAR     38  31  76 CALM      30.17R
$$
MNZ037-044-045-052-053-270600-
   East Central Minnesota

CITY           SKY/WX    TMP DP  RH WIND       PRES   REMARKS
PRINCETON      CLEAR     39  27  60 CALM      30.17R
MORA           CLEAR     32  28  86 N3        30.19R
CAMBRIDGE      CLEAR     36  25  64 CALM      30.15S
RUSH CITY      PTCLDY    40  24  52 CALM      30.17R
MOOSE LAKE     CLEAR     36  25  64 CALM      30.17R
HINCKLEY       FAIR      34  25  69 CALM      30.17R
CLOQUET        CLEAR     34  21  60 CALM      30.17S
MCGREGOR       CLEAR     36  25  64 CALM      30.18R
$$
MNZ071>073-080-081-089-090-097-098-270600-
   Southwest Minnesota

CITY           SKY/WX    TMP DP  RH WIND       PRES   REMARKS
MONTEVIDEO     CLEAR     45  21  39 E5        30.16S
GRANITE FALLS  CLEAR     44  21  40 CALM      30.17R
CANBY          CLEAR     39  31  72 CALM      30.16S
MARSHALL       CLEAR     46  19  34 E7        30.14S
REDWOOD FALLS  CLEAR     51  20  29 E5        30.14S
OLIVIA         CLEAR     41  19  42 NE7       30.15R
PIPESTONE      CLEAR     45  23  42 NE2       30.13R
WORTHINGTON    CLEAR     43  21  42 NE6       30.14R
JACKSON        CLEAR     43  21  42 E5        30.14R
TRACY          CLEAR     44  19  37 CALM      30.15R
SLAYTON        CLEAR     46  18  32 CALM      30.15R
$$
MNZ065>067-074>077-082>085-091>093-270600-
   South Central Minnesota

CITY           SKY/WX    TMP DP  RH WIND       PRES   REMARKS
MANKATO        CLEAR     50  23  34 N7        30.14R
NEW ULM        CLEAR     48  18  29 CALM      30.15R
ST JAMES       CLEAR     45  19  36 N3        30.15R
FAIRMONT       CLEAR     45  21  39 CALM      30.12S
GLENCOE        CLEAR     48  27  42 CALM      30.15R
FARIBAULT      CLEAR     46  27  46 N3        30.14S
OWATONNA       CLEAR     45  25  45 NE7       30.14R
WASECA         CLEAR     45  27  49 NE5       30.14R
ALBERT LEA     CLEAR     43  30  61 CALM      30.12S
$$
MNZ078>079-086>088-094>096-270600-
   Southeast Minnesota

CITY           SKY/WX    TMP DP  RH WIND       PRES   REMARKS
ROCHESTER      CLEAR     45  26  47 N8        30.13R
RED WING       CLEAR     48  21  34 NE6       30.14R
STANTON        CLEAR     44  26  49 NE5       30.14R
DODGE CENTER   CLEAR     45  28  53 NE7       30.13R
WINONA         CLEAR     48  28  46 CALM      30.12S
AUSTIN         CLEAR     43  32  65 N3        30.12R
PRESTON        CLEAR     44  26  49 N8        30.12R
$$
ABBREVIATIONS USED IN REMARKS
   TC - TEMPERATURES IN CELSIUS
  WCI - WIND CHILL INDEX
   HX - HEAT INDEX
  VSB - VISIBILITY
$$



USA.gov is the U.S. government's official web portal to all federal, state and local government web resources and services.